Mount Horeb, WI (53572)

2:43 AM CST on February 08, 2016 (GMT -0600)
Maple Dr. | | Change Station
CLOSE
Current Station
Personal Weather Station
Location: MT HOREB, WI
Elevation: 1181 ft
Nearby Weather Stations

Elev 1181 ft 43.00 °N, 89.74 °W | Updated 6 seconds ago

Overcast
Overcast
28.6 °F
Feels Like 21 °F
N
7.7
Wind Variable Wind from NNW
Gusts 9.3 mph

Today
High -- | Low -- °F
--% Chance of Precip.
Yesterday
High -- | Low -- °F
Precip. -- in
Pressure 29.60 in
Visibility 10.0 miles
Clouds Overcast 800 ft
Windchill 21 °F
Dew Point 26 °F
Humidity 89%
Rainfall 0.00 in
Snow Depth Not available.
7:06 AM 5:20 PM
Waning Crescent, 0% visible
METAR KC29 080835Z AUTO 28012G15KT 10SM OVC008 00/M02 A2960 RMK AO1 T00001017
Pressure 29.60 in
Visibility 10.0 miles
Clouds Overcast 800 ft
Windchill 21 °F
Dew Point 26 °F
Humidity 89%
Rainfall 0.00 in
Snow Depth Not available.
7:06 AM 5:20 PM
Waning Crescent, 0% visible
METAR KC29 080835Z AUTO 28012G15KT 10SM OVC008 00/M02 A2960 RMK AO1 T00001017

10-Day Weather Forecast

Almanac

Astronomy

Feb. 08, 2016 Rise Set
Actual Time
Civil Twilight
Nautical Twilight
Astronomical Twilight
Moon
Length of Visible Light
Length of Day
Tomorrow will be .
, % of the Moon is Illuminated

Today's Extremes

State Highs State Lows

Community

WunderPhotos

Upload Photos

1,891,412 photos uploaded!

WunderBlog® & News

Nearby

Air Quality

  Air Quality AQ Index Pollutant
Not available.

Snow Depth

Station Depth Elevation

Earthquake Activity

City Distance Mag. Time & Date
Minimum magnitude displayed is 2.5.

Coastal Water Temperatures

Place Temperature

Stations

Nearby Weather Stations

Station Location Temp. Windchill Dew Point Humidity Wind Precip. Elev Updated Type
                   

Watches & Warnings

There are currently no watches in effect.